Location: Gallinara
(44.0333°N, 8.2333°E)
Time: 16:48:06
(UTC+00:00)

Cosmos 1937 Rocket - Pass Details

Date: 25 September 2020
Orbit: 747 x 779 km, 74.0° (Epoch: 30 October)

Event Time Altitude Azimuth Distance (km) Brightness Sun altitude
Rises 03:10:00 0° 338° (NNW) 3,205 6.7 -23.3°
Reaches altitude 10° 03:12:22 10° 338° (NNW) 2,275 5.9 -22.9°
Maximum altitude 03:17:31 83° 252° (WSW) 758 3.3 -22.0°
Drops below altitude 10° 03:22:38 10° 164° (SSE) 2,259 5.9 -21.2°
Sets 03:24:59 0° 164° (SSE) 3,181 6.7 -20.8°
